Findlay, OH

11:04 PM EDT on September 19, 2017 (GMT -0400)
Findlay

Weather History for KFDY - October, 2011

Change the Weather History Date:

Monday, October 24, 2011

  Actual Average Record
Temperature  
Mean Temperature 56 °F -  
Max Temperature 62 °F 60 °F 81 °F (1963)
Min Temperature 46 °F 41 °F 24 °F (1969)
Degree Days  
Heating Degree Days 10    
Growing Degree Days 6 (Base 50)    
Moisture  
Dew Point 45 °F    
Average Humidity 74    
Maximum Humidity 93    
Minimum Humidity 38    
Precipitation  
Precipitation 0.15 in - - ()
Sea Level Pressure  
Sea Level Pressure 29.98 in    
Wind  
Wind Speed 10 mph (WSW)    
Max Wind Speed 15 mph    
Max Gust Speed 29 mph    
Visibility 9 miles    
Events Rain    
Averages and records for this station are not official NWS values.
T = Trace of Precipitation, MM = Missing Value Source: NWS Daily Summary

Daily Weather History Graph

Daily Weather History Graph

Search for Another Location

Airport or City:

Trip Planner

Search our weather history database for the weather conditions in past years. The results will help you decide how hot, cold, wet, or windy it might be!

Date:

Astronomy

Oct. 24, 2011 Rise Set
Actual Time 7:55 AM EDT 6:41 PM EDT
Civil Twilight 7:27 AM EDT 7:09 PM EDT
Nautical Twilight 6:55 AM EDT 7:41 PM EDT
Astronomical Twilight 6:23 AM EDT 8:13 PM EDT
Moon 5:12 AM EDT (10/24) 5:06 PM EDT (10/24)
Length of Visible Light 11h 41m
Length of Day
10h 45m
Waning Crescent, 7% of the Moon is Illuminated
Oct 24
Waning Crescent
Oct 26
New
Nov 2
First Quarter
Nov 10
Full
Nov 18
Last Quarter

Hourly Weather History & Observations

Time (EDT) Temp. Dew Point Humidity Pressure Visibility Wind Dir Wind Speed Gust Speed Precip Events Conditions
12:53 AM 51.1 °F 44.1 °F 77% 29.94 in 10.0 mi SSW 9.2 mph - N/A   Clear
1:53 AM 50.0 °F 44.1 °F 80% 29.94 in 10.0 mi SSW 10.4 mph - N/A   Clear
2:53 AM 51.1 °F 45.0 °F 80% 29.92 in 10.0 mi SSW 10.4 mph - N/A   Clear
3:53 AM 52.0 °F 45.0 °F 77% 29.89 in 10.0 mi SSW 12.7 mph - N/A   Clear
4:53 AM 54.0 °F 45.0 °F 72% 29.88 in 10.0 mi SW 12.7 mph 23.0 mph N/A   Clear
5:17 AM 53.6 °F 46.4 °F 77% 29.94 in 10.0 mi WNW 15.0 mph 28.8 mph N/A   Mostly Cloudy
5:27 AM 53.6 °F 46.4 °F 77% 29.95 in 10.0 mi NW 15.0 mph 24.2 mph N/A   Overcast
5:35 AM 53.6 °F 46.4 °F 77% 29.95 in 9.0 mi WNW 11.5 mph - 0.00 in Rain Light Rain
5:53 AM 51.1 °F 48.0 °F 89% 29.94 in 6.0 mi WNW 4.6 mph - 0.02 in Rain Light Rain
6:53 AM 50.0 °F 48.0 °F 93% 29.94 in 4.0 mi South 8.1 mph - 0.09 in Rain Rain
7:53 AM 50.0 °F 48.0 °F 93% 29.92 in 6.0 mi South 10.4 mph - 0.04 in Rain Light Rain
8:53 AM 50.0 °F 48.0 °F 93% 29.94 in 7.0 mi South 8.1 mph - 0.00 in   Overcast
9:40 AM 51.8 °F 48.2 °F 88% 29.96 in 6.0 mi South 5.8 mph - N/A   Overcast
9:53 AM 51.1 °F 48.9 °F 92% 29.96 in 6.0 mi SSW 10.4 mph - N/A   Overcast
11:08 AM 53.6 °F 50.0 °F 88% 29.98 in 5.0 mi SW 8.1 mph - N/A   Overcast
11:53 AM 54.0 °F 51.1 °F 90% 29.98 in 6.0 mi West 8.1 mph - N/A   Overcast
12:31 PM 55.4 °F 51.8 °F 88% 30.00 in 8.0 mi WNW 8.1 mph - N/A   Overcast
12:53 PM 57.0 °F 48.9 °F 74% 30.00 in 10.0 mi WNW 11.5 mph - N/A   Overcast
1:08 PM 57.2 °F 48.2 °F 72% 30.00 in 10.0 mi WNW 13.8 mph - N/A   Scattered Clouds
1:53 PM 59.0 °F 46.0 °F 62% 29.99 in 10.0 mi WNW 11.5 mph - N/A   Scattered Clouds
2:53 PM 61.0 °F 37.9 °F 42% 30.00 in 10.0 mi WNW 15.0 mph - N/A   Clear
3:53 PM 61.0 °F 35.1 °F 38% 30.01 in 10.0 mi WNW 13.8 mph 24.2 mph N/A   Clear
4:53 PM 61.0 °F 35.1 °F 38% 30.04 in 10.0 mi WNW 15.0 mph 19.6 mph N/A   Clear
5:53 PM 59.0 °F 37.9 °F 46% 30.05 in 10.0 mi WNW 11.5 mph - N/A   Clear
6:53 PM 52.0 °F 39.0 °F 61% 30.07 in 10.0 mi West 6.9 mph - N/A   Clear
7:53 PM 50.0 °F 37.9 °F 63% 30.10 in 10.0 mi WSW 4.6 mph - N/A   Clear
8:53 PM 46.9 °F 37.9 °F 71% 30.12 in 10.0 mi West 8.1 mph - N/A   Clear